Location: Augirein
(42.9320°N, 0.9181°E)
Time: 19:32:26
(UTC+00:00)

COSMOS 2441 - Pass Details

Date: 20 June 2021
Orbit: 707 x 732 km, 98.1° (Epoch: 23 July)

Event Time Altitude Azimuth Distance (km) Brightness Sun altitude
Rises 03:02:24 0° 13° (NNE) 3,136 8.8 -11.2°
Reaches altitude 10° 03:04:41 10° 14° (NNE) 2,208 7.9 -10.9°
Maximum altitude 03:09:33 85° 103° (ESE) 721 4.4 -10.3°
Drops below altitude 10° 03:14:20 10° 193° (SSW) 2,178 6.3 -9.7°
Enters shadow 03:14:47 - 193° (SSW) 2,359 6.5 -9.7°
